AAY1960 KFLL-KBNA

Flight info

Callsign AAY1960
Flight time N/A
Altitude 36000
Route HROCK2 KPASA Q118 THRSR SWFFT3
Aircraft A320/M-SDE3FGHIRWY/LB1

Departure

Time 2026-05-04 00:47
Airport Fort Lauderdale Hollywood International Airport (KFLL)

Arrival

Time N/A
Airport Nashville International Airport (KBNA)
Time Latitude Longitude Altitude Speed Heading
2026-05-03 23:46 26.07397 -80.14014 16 ft 0 kts 239°
2026-05-04 00:06 26.07409 -80.13995 -3 ft 2 kts 236°
2026-05-04 00:06 26.07424 -80.13973 16 ft 4 kts 218°
2026-05-04 00:06 26.07442 -80.13961 18 ft 0 kts 197°
2026-05-04 00:09 26.07440 -80.13965 17 ft 1 kts 228°
2026-05-04 00:10 26.07441 -80.13971 17 ft 2 kts 267°
2026-05-04 00:10 26.07444 -80.13976 17 ft 0 kts 297°
2026-05-04 00:11 26.07467 -80.14017 16 ft 14 kts 300°
2026-05-04 00:11 26.07486 -80.14169 16 ft 24 kts 270°
2026-05-04 00:12 26.07487 -80.14356 16 ft 25 kts 270°
2026-05-04 00:12 26.07488 -80.14552 16 ft 26 kts 270°
2026-05-04 00:12 26.07487 -80.14758 16 ft 28 kts 270°
2026-05-04 00:12 26.07488 -80.15009 16 ft 37 kts 270°
2026-05-04 00:13 26.07493 -80.15321 16 ft 44 kts 271°
2026-05-04 00:13 26.07492 -80.15578 16 ft 22 kts 271°
2026-05-04 00:13 26.07492 -80.15607 16 ft 0 kts 269°
2026-05-04 00:14 26.07492 -80.15608 16 ft 1 kts 269°
2026-05-04 00:15 26.07492 -80.15614 16 ft 0 kts 269°
2026-05-04 00:17 26.07492 -80.15630 16 ft 6 kts 269°
2026-05-04 00:17 26.07492 -80.15673 16 ft 5 kts 269°
2026-05-04 00:17 26.07491 -80.15699 16 ft 0 kts 269°
2026-05-04 00:22 26.07491 -80.15700 16 ft 2 kts 269°
2026-05-04 00:23 26.07491 -80.15749 16 ft 11 kts 269°
2026-05-04 00:23 26.07491 -80.15767 16 ft 0 kts 269°
2026-05-04 00:25 26.07492 -80.15787 16 ft 9 kts 276°
2026-05-04 00:25 26.07494 -80.15848 16 ft 0 kts 269°
2026-05-04 00:27 26.07493 -80.15862 16 ft 11 kts 269°
2026-05-04 00:27 26.07492 -80.16024 16 ft 9 kts 268°
2026-05-04 00:27 26.07491 -80.16036 16 ft 0 kts 271°
2026-05-04 00:27 26.07492 -80.16036 16 ft 0 kts 271°
2026-05-04 00:28 26.07491 -80.16036 16 ft 0 kts 271°
2026-05-04 00:29 26.07492 -80.16036 16 ft 0 kts 271°
2026-05-04 00:29 26.07492 -80.16037 16 ft 1 kts 274°
2026-05-04 00:30 26.07493 -80.16051 16 ft 2 kts 275°
2026-05-04 00:30 26.07495 -80.16128 16 ft 9 kts 275°
2026-05-04 00:30 26.07496 -80.16152 16 ft 0 kts 271°
2026-05-04 00:31 26.07496 -80.16160 16 ft 3 kts 271°
2026-05-04 00:31 26.07496 -80.16162 16 ft 0 kts 270°
2026-05-04 00:31 26.07496 -80.16163 16 ft 1 kts 270°
2026-05-04 00:31 26.07496 -80.16194 16 ft 5 kts 270°
2026-05-04 00:32 26.07496 -80.16204 16 ft 0 kts 269°
2026-05-04 00:32 26.07496 -80.16209 16 ft 2 kts 269°
2026-05-04 00:32 26.07496 -80.16226 16 ft 1 kts 269°
2026-05-04 00:35 26.07495 -80.16280 16 ft 14 kts 271°
2026-05-04 00:36 26.07496 -80.16384 16 ft 13 kts 270°
2026-05-04 00:36 26.07496 -80.16416 16 ft 0 kts 270°
2026-05-04 00:38 26.07496 -80.16422 17 ft 0 kts 270°
2026-05-04 00:38 26.07496 -80.16429 16 ft 0 kts 269°
2026-05-04 00:38 26.07496 -80.16430 16 ft 0 kts 269°
2026-05-04 00:38 26.07496 -80.16455 16 ft 12 kts 269°
2026-05-04 00:39 26.07496 -80.16473 16 ft 0 kts 270°
2026-05-04 00:39 26.07496 -80.16479 16 ft 6 kts 270°
2026-05-04 00:40 26.07496 -80.16510 16 ft 0 kts 269°
2026-05-04 00:41 26.07496 -80.16519 16 ft 4 kts 270°
2026-05-04 00:41 26.07496 -80.16558 16 ft 1 kts 270°
2026-05-04 00:42 26.07496 -80.16559 16 ft 0 kts 270°
2026-05-04 00:42 26.07496 -80.16565 16 ft 0 kts 270°
2026-05-04 00:43 26.07499 -80.16598 16 ft 7 kts 282°
2026-05-04 00:43 26.07514 -80.16624 17 ft 0 kts 331°
2026-05-04 00:45 26.07549 -80.16637 16 ft 17 kts 346°
2026-05-04 00:45 26.07680 -80.16634 18 ft 8 kts 41°
2026-05-04 00:46 26.07694 -80.16580 18 ft 0 kts 85°
2026-05-04 00:46 26.07694 -80.16576 18 ft 5 kts 85°
2026-05-04 00:46 26.07695 -80.16237 20 ft 81 kts 90°
2026-05-04 00:46 26.07690 -80.15365 16 ft 142 kts 90°
2026-05-04 00:47 26.07676 -80.14099 162 ft 175 kts 91°
2026-05-04 00:47 26.07646 -80.12777 974 ft 164 kts 89°
2026-05-04 00:47 26.07644 -80.11543 1739 ft 158 kts 88°
2026-05-04 00:47 26.07680 -80.10320 2232 ft 166 kts 81°
2026-05-04 00:48 26.08070 -80.09042 2469 ft 186 kts 57°
2026-05-04 00:48 26.08951 -80.07879 2725 ft 208 kts 41°
2026-05-04 00:48 26.10156 -80.06867 2973 ft 231 kts 29°
2026-05-04 00:48 26.11684 -80.06069 3346 ft 254 kts 17°
2026-05-04 00:49 26.13418 -80.05421 3904 ft 269 kts 14°
2026-05-04 00:49 26.15273 -80.05071 4703 ft 273 kts 359°
2026-05-04 00:49 26.17157 -80.05281 5489 ft 274 kts 342°
2026-05-04 00:49 26.18993 -80.05973 5906 ft 293 kts 336°
2026-05-04 00:50 26.21004 -80.06920 5933 ft 322 kts 329°
2026-05-04 00:50 26.22637 -80.08496 7054 ft 302 kts 303°
2026-05-04 00:50 26.23578 -80.10474 8386 ft 280 kts 288°
2026-05-04 00:50 26.24250 -80.12479 9481 ft 274 kts 288°
2026-05-04 00:51 26.24934 -80.14457 10302 ft 274 kts 288°
2026-05-04 00:51 26.25596 -80.16462 10991 ft 278 kts 284°
2026-05-04 00:51 26.26173 -80.18604 11202 ft 300 kts 284°
2026-05-04 00:51 26.26782 -80.20887 11353 ft 323 kts 284°
2026-05-04 00:52 26.27434 -80.23342 11741 ft 335 kts 284°
2026-05-04 00:52 26.28100 -80.25846 12365 ft 339 kts 284°
2026-05-04 00:52 26.28776 -80.28384 13026 ft 342 kts 284°
2026-05-04 00:52 26.29453 -80.30933 13687 ft 345 kts 284°
2026-05-04 00:53 26.30137 -80.33512 14280 ft 347 kts 284°
2026-05-04 00:53 26.30824 -80.36105 14866 ft 349 kts 283°
2026-05-04 00:53 26.31515 -80.38711 15444 ft 351 kts 283°
2026-05-04 00:53 26.32203 -80.41299 16019 ft 353 kts 283°
2026-05-04 00:54 26.32909 -80.43968 16603 ft 355 kts 283°
2026-05-04 00:54 26.33610 -80.46621 17159 ft 358 kts 283°
2026-05-04 00:54 26.34305 -80.49257 17722 ft 360 kts 283°
2026-05-04 00:54 26.35013 -80.51942 18282 ft 362 kts 282°
2026-05-04 00:55 26.35728 -80.54649 18788 ft 364 kts 282°
2026-05-04 00:55 26.36447 -80.57362 19300 ft 365 kts 282°
2026-05-04 00:55 26.37166 -80.60089 19805 ft 367 kts 282°
2026-05-04 00:55 26.37883 -80.62823 20332 ft 369 kts 282°
2026-05-04 00:56 26.38605 -80.65576 20837 ft 370 kts 282°
2026-05-04 00:56 26.39329 -80.68337 21340 ft 372 kts 282°
2026-05-04 00:56 26.40245 -80.71061 21802 ft 380 kts 291°
2026-05-04 00:56 26.41662 -80.73599 22261 ft 390 kts 301°
2026-05-04 00:57 26.43492 -80.75882 22710 ft 397 kts 306°
2026-05-04 00:57 26.45377 -80.78139 23146 ft 399 kts 306°
2026-05-04 00:57 26.47270 -80.80420 23570 ft 401 kts 305°
2026-05-04 00:57 26.49144 -80.82684 23907 ft 403 kts 305°
2026-05-04 00:58 26.51102 -80.84952 24246 ft 410 kts 310°
2026-05-04 00:58 26.53313 -80.87003 24573 ft 415 kts 313°
2026-05-04 00:58 26.55559 -80.89040 24896 ft 417 kts 313°
2026-05-04 00:58 26.57819 -80.91087 25223 ft 419 kts 312°
2026-05-04 00:59 26.60085 -80.93142 25609 ft 420 kts 312°
2026-05-04 00:59 26.62358 -80.95207 25960 ft 421 kts 312°
2026-05-04 00:59 26.64636 -80.97276 26298 ft 422 kts 312°
2026-05-04 00:59 26.66918 -80.99355 26627 ft 423 kts 312°
2026-05-04 01:00 26.69177 -81.01416 26952 ft 425 kts 312°
2026-05-04 01:00 26.71471 -81.03507 27274 ft 426 kts 312°
2026-05-04 01:00 26.73776 -81.05607 27584 ft 428 kts 312°
2026-05-04 01:00 26.76087 -81.07714 27900 ft 429 kts 312°
2026-05-04 01:01 26.78401 -81.09827 28194 ft 430 kts 312°
2026-05-04 01:01 26.80723 -81.11946 28481 ft 432 kts 312°
2026-05-04 01:01 26.83054 -81.14074 28762 ft 433 kts 312°
2026-05-04 01:01 26.85391 -81.16210 29030 ft 434 kts 312°
2026-05-04 01:02 26.87738 -81.18355 29289 ft 435 kts 312°
2026-05-04 01:02 26.90086 -81.20503 29587 ft 436 kts 311°
2026-05-04 01:02 26.92435 -81.22655 29902 ft 435 kts 311°
2026-05-04 01:02 26.94769 -81.24792 30248 ft 433 kts 311°
2026-05-04 01:03 26.97106 -81.26932 30530 ft 432 kts 311°
2026-05-04 01:03 26.99435 -81.29068 30806 ft 432 kts 311°
2026-05-04 01:03 27.01727 -81.31176 31069 ft 431 kts 311°
2026-05-04 01:03 27.04076 -81.33290 31325 ft 435 kts 314°
2026-05-04 01:04 27.06685 -81.35110 31580 ft 444 kts 320°
2026-05-04 01:04 27.09383 -81.36816 31841 ft 445 kts 320°
2026-05-04 01:04 27.12080 -81.38515 32104 ft 445 kts 320°
2026-05-04 01:04 27.14783 -81.40222 32355 ft 445 kts 320°
2026-05-04 01:05 27.17441 -81.41912 32602 ft 444 kts 319°
2026-05-04 01:05 27.20132 -81.43626 32856 ft 444 kts 319°
2026-05-04 01:05 27.22824 -81.45339 33169 ft 444 kts 319°
2026-05-04 01:05 27.25504 -81.47043 33454 ft 442 kts 319°
2026-05-04 01:06 27.28186 -81.48752 33731 ft 442 kts 318°
2026-05-04 01:06 27.30854 -81.50455 33990 ft 442 kts 318°
2026-05-04 01:06 27.33544 -81.52138 34225 ft 446 kts 322°
2026-05-04 01:06 27.36428 -81.53532 34461 ft 453 kts 326°
2026-05-04 01:07 27.39354 -81.54856 34703 ft 453 kts 326°
2026-05-04 01:07 27.42272 -81.56175 34960 ft 451 kts 325°
2026-05-04 01:07 27.45185 -81.57494 35171 ft 450 kts 325°
2026-05-04 01:07 27.48091 -81.58814 35398 ft 449 kts 325°
2026-05-04 01:08 27.50988 -81.60132 35614 ft 448 kts 325°
2026-05-04 01:08 27.53883 -81.61453 35829 ft 447 kts 325°
2026-05-04 01:08 27.56762 -81.62767 36008 ft 447 kts 324°
2026-05-04 01:09 27.62492 -81.65395 36076 ft 447 kts 324°
2026-05-04 01:09 27.68237 -81.68028 36084 ft 445 kts 324°
2026-05-04 01:10 27.73973 -81.70657 36094 ft 444 kts 324°
2026-05-04 01:10 27.79702 -81.73277 36103 ft 444 kts 324°
2026-05-04 01:11 27.85437 -81.75904 36121 ft 444 kts 324°
2026-05-04 01:11 27.91165 -81.78537 36109 ft 444 kts 323°
2026-05-04 01:12 27.95923 -81.80734 36104 ft 444 kts 323°
2026-05-04 01:12 28.01653 -81.83385 36103 ft 445 kts 323°
2026-05-04 01:13 28.08325 -81.86462 36103 ft 445 kts 323°
2026-05-04 01:13 28.13100 -81.88659 36141 ft 445 kts 323°
2026-05-04 01:14 28.18661 -81.91568 36126 ft 426 kts 313°
2026-05-04 01:14 28.23482 -81.95357 36118 ft 421 kts 311°
2026-05-04 01:15 28.28285 -81.99170 36115 ft 421 kts 311°
2026-05-04 01:15 28.33092 -82.02985 36112 ft 421 kts 311°
2026-05-04 01:16 28.37896 -82.06796 36108 ft 421 kts 311°
2026-05-04 01:16 28.42672 -82.10588 36103 ft 421 kts 311°
2026-05-04 01:17 28.47477 -82.14406 36110 ft 421 kts 311°
2026-05-04 01:17 28.52281 -82.18226 36099 ft 421 kts 310°
2026-05-04 01:18 28.57082 -82.22048 36088 ft 421 kts 310°
2026-05-04 01:18 28.61887 -82.25879 36101 ft 421 kts 310°
2026-05-04 01:19 28.66658 -82.29685 36103 ft 422 kts 311°
2026-05-04 01:19 28.71473 -82.33525 36104 ft 422 kts 310°
2026-05-04 01:20 28.76273 -82.37369 36109 ft 422 kts 311°
2026-05-04 01:20 28.81059 -82.41205 36101 ft 421 kts 311°
2026-05-04 01:21 28.85857 -82.45052 36081 ft 422 kts 311°
2026-05-04 01:21 28.90655 -82.48910 36082 ft 422 kts 311°
2026-05-04 01:22 28.95428 -82.52749 36103 ft 422 kts 311°
2026-05-04 01:22 29.00239 -82.56617 36102 ft 422 kts 311°
2026-05-04 01:23 29.05036 -82.60488 36153 ft 422 kts 312°
2026-05-04 01:23 29.09845 -82.64364 36135 ft 422 kts 312°
2026-05-04 01:24 29.14644 -82.68233 36124 ft 422 kts 312°
2026-05-04 01:24 29.19444 -82.72108 36115 ft 422 kts 312°
2026-05-04 01:25 29.24241 -82.75991 36106 ft 422 kts 312°
2026-05-04 01:25 29.28990 -82.79850 36107 ft 419 kts 312°
2026-05-04 01:26 29.33734 -82.83697 36101 ft 417 kts 312°
2026-05-04 01:26 29.38470 -82.87546 36106 ft 416 kts 313°
2026-05-04 01:27 29.43207 -82.91396 36100 ft 416 kts 313°
2026-05-04 01:27 29.47935 -82.95244 36098 ft 417 kts 313°
2026-05-04 01:28 29.52872 -82.98855 36100 ft 434 kts 324°
2026-05-04 01:28 29.58450 -83.01525 36109 ft 438 kts 325°
2026-05-04 01:29 29.64084 -83.04183 36110 ft 438 kts 325°
2026-05-04 01:29 29.69716 -83.06863 36129 ft 438 kts 326°
2026-05-04 01:30 29.75356 -83.09557 36120 ft 438 kts 326°
2026-05-04 01:30 29.80995 -83.12258 36117 ft 438 kts 326°
2026-05-04 01:31 29.86632 -83.14960 36118 ft 438 kts 326°
2026-05-04 01:31 29.92215 -83.17637 36127 ft 436 kts 326°
2026-05-04 01:32 29.97814 -83.20319 36112 ft 435 kts 326°
2026-05-04 01:32 30.03413 -83.23011 36108 ft 435 kts 326°
2026-05-04 01:33 30.09018 -83.25716 36111 ft 436 kts 326°
2026-05-04 01:33 30.14595 -83.28396 36115 ft 437 kts 326°
2026-05-04 01:34 30.20210 -83.31098 36118 ft 437 kts 326°
2026-05-04 01:34 30.25829 -83.33814 36151 ft 437 kts 326°
2026-05-04 01:35 30.31453 -83.36535 36138 ft 438 kts 326°
2026-05-04 01:35 30.37086 -83.39249 36136 ft 439 kts 326°
2026-05-04 01:36 30.42720 -83.41969 36136 ft 439 kts 326°
2026-05-04 01:36 30.48314 -83.44687 36138 ft 439 kts 326°
2026-05-04 01:37 30.53982 -83.47445 36140 ft 439 kts 326°
2026-05-04 01:37 30.59584 -83.50160 36144 ft 439 kts 326°
2026-05-04 01:38 30.65219 -83.52899 36143 ft 439 kts 326°
2026-05-04 01:38 30.70853 -83.55651 36160 ft 439 kts 326°
2026-05-04 01:39 30.76484 -83.58407 36155 ft 439 kts 326°
2026-05-04 01:39 30.82087 -83.61141 36163 ft 440 kts 327°
2026-05-04 01:40 30.87714 -83.63887 36135 ft 437 kts 327°
2026-05-04 01:40 30.93309 -83.66628 36114 ft 437 kts 327°
2026-05-04 01:41 30.98929 -83.69380 36112 ft 438 kts 327°
2026-05-04 01:41 31.04540 -83.72143 36118 ft 435 kts 327°
2026-05-04 01:42 31.10094 -83.74902 36155 ft 437 kts 327°
2026-05-04 01:42 31.15701 -83.77673 36134 ft 439 kts 327°
2026-05-04 01:43 31.21334 -83.80445 36127 ft 440 kts 328°
2026-05-04 01:43 31.26981 -83.83218 36130 ft 440 kts 328°
2026-05-04 01:44 31.32625 -83.85998 36129 ft 440 kts 328°
2026-05-04 01:44 31.38276 -83.88789 36156 ft 440 kts 328°
2026-05-04 01:45 31.43893 -83.91582 36163 ft 441 kts 329°
2026-05-04 01:45 31.52419 -83.95681 36144 ft 448 kts 336°
2026-05-04 01:46 31.58606 -83.97151 36140 ft 454 kts 341°
2026-05-04 01:46 31.64816 -83.98528 36130 ft 454 kts 341°
2026-05-04 01:47 31.71026 -83.99912 36152 ft 454 kts 342°
2026-05-04 01:47 31.77239 -84.01299 36140 ft 454 kts 341°
2026-05-04 01:48 31.83440 -84.02685 36140 ft 454 kts 342°
2026-05-04 01:48 31.89660 -84.04069 36123 ft 454 kts 342°
2026-05-04 01:49 31.95827 -84.05445 36137 ft 454 kts 342°
2026-05-04 01:49 32.02043 -84.06832 36125 ft 454 kts 342°
2026-05-04 01:50 32.08253 -84.08226 36116 ft 453 kts 342°
2026-05-04 01:50 32.14449 -84.09625 36111 ft 453 kts 342°
2026-05-04 01:51 32.20618 -84.11007 36109 ft 453 kts 342°
2026-05-04 01:51 32.26820 -84.12396 36136 ft 453 kts 343°
2026-05-04 01:52 32.33008 -84.13793 36134 ft 452 kts 343°
2026-05-04 01:52 32.39187 -84.15182 36133 ft 451 kts 343°
2026-05-04 01:53 32.45309 -84.16563 36131 ft 451 kts 343°
2026-05-04 01:53 32.51468 -84.17961 36147 ft 451 kts 343°
2026-05-04 01:54 32.57665 -84.19358 36147 ft 453 kts 343°
2026-05-04 01:54 32.63794 -84.20743 36121 ft 447 kts 343°
2026-05-04 01:55 32.69902 -84.22124 36122 ft 447 kts 343°
2026-05-04 01:55 32.76014 -84.23510 36152 ft 447 kts 344°
2026-05-04 01:56 32.82120 -84.24900 36170 ft 446 kts 344°
2026-05-04 01:56 32.88201 -84.26299 36177 ft 445 kts 344°
2026-05-04 01:57 32.94271 -84.27688 36174 ft 444 kts 344°
2026-05-04 01:57 33.00300 -84.29066 36170 ft 443 kts 345°
2026-05-04 01:58 33.06337 -84.30443 36159 ft 440 kts 345°
2026-05-04 01:58 33.12340 -84.31814 36165 ft 438 kts 345°
2026-05-04 01:59 33.18323 -84.33198 36172 ft 437 kts 345°
2026-05-04 01:59 33.24290 -84.34571 36178 ft 436 kts 345°
2026-05-04 02:00 33.30252 -84.35939 36181 ft 436 kts 345°
2026-05-04 02:00 33.35202 -84.37079 36180 ft 435 kts 345°
2026-05-04 02:01 33.41156 -84.38459 36141 ft 435 kts 345°
2026-05-04 02:01 33.47103 -84.39834 36145 ft 435 kts 345°
2026-05-04 02:02 33.53018 -84.41202 36147 ft 435 kts 345°
2026-05-04 02:02 33.58967 -84.42587 36165 ft 434 kts 345°
2026-05-04 02:03 33.64797 -84.44365 36159 ft 428 kts 335°
2026-05-04 02:03 33.70357 -84.46953 36157 ft 428 kts 335°
2026-05-04 02:04 33.75909 -84.49553 36154 ft 428 kts 335°
2026-05-04 02:04 33.81412 -84.52132 36150 ft 427 kts 335°
2026-05-04 02:05 33.86951 -84.54732 36149 ft 427 kts 335°
2026-05-04 02:05 33.92488 -84.57334 36140 ft 427 kts 335°
2026-05-04 02:06 33.97994 -84.60008 36164 ft 424 kts 329°
2026-05-04 02:06 34.03261 -84.63216 36162 ft 424 kts 329°
2026-05-04 02:07 34.05895 -84.64817 36030 ft 424 kts 329°
2026-05-04 02:07 34.08529 -84.66419 35812 ft 422 kts 329°
2026-05-04 02:07 34.11108 -84.67984 36021 ft 419 kts 330°
2026-05-04 02:07 34.13725 -84.69539 36113 ft 418 kts 329°
2026-05-04 02:08 34.18904 -84.72713 36146 ft 417 kts 329°
2026-05-04 02:08 34.24064 -84.75909 36128 ft 416 kts 329°
2026-05-04 02:09 34.29230 -84.79083 36137 ft 416 kts 329°
2026-05-04 02:09 34.34407 -84.82246 36132 ft 416 kts 329°
2026-05-04 02:10 34.39580 -84.85426 36110 ft 415 kts 329°
2026-05-04 02:10 34.44719 -84.88595 36116 ft 414 kts 329°
2026-05-04 02:11 34.49862 -84.91756 36139 ft 414 kts 329°
2026-05-04 02:11 34.54967 -84.94906 36138 ft 414 kts 329°
2026-05-04 02:12 34.60104 -84.98079 35927 ft 414 kts 329°
2026-05-04 02:12 34.62674 -84.99663 35676 ft 414 kts 329°
2026-05-04 02:12 34.65219 -85.01279 35452 ft 411 kts 326°
2026-05-04 02:13 34.67632 -85.03124 35205 ft 409 kts 324°
2026-05-04 02:13 34.70039 -85.04989 34953 ft 409 kts 324°
2026-05-04 02:13 34.72437 -85.06845 34705 ft 408 kts 324°
2026-05-04 02:13 34.74829 -85.08695 34464 ft 407 kts 324°
2026-05-04 02:14 34.77216 -85.10542 34227 ft 407 kts 324°
2026-05-04 02:14 34.79601 -85.12390 33959 ft 407 kts 324°
2026-05-04 02:14 34.81959 -85.14222 33687 ft 407 kts 324°
2026-05-04 02:14 34.84348 -85.16080 33416 ft 408 kts 324°
2026-05-04 02:15 34.86744 -85.17942 33149 ft 409 kts 324°
2026-05-04 02:15 34.89144 -85.19803 32884 ft 410 kts 324°
2026-05-04 02:15 34.91546 -85.21666 32645 ft 409 kts 324°
2026-05-04 02:15 34.93952 -85.23532 32385 ft 409 kts 324°
2026-05-04 02:16 34.96355 -85.25397 32121 ft 410 kts 324°
2026-05-04 02:16 34.98760 -85.27268 31870 ft 411 kts 324°
2026-05-04 02:16 35.01169 -85.29148 31616 ft 411 kts 324°
2026-05-04 02:16 35.03580 -85.31036 31365 ft 412 kts 324°
2026-05-04 02:17 35.06001 -85.32933 31115 ft 413 kts 324°
2026-05-04 02:17 35.08035 -85.34524 30648 ft 413 kts 324°
2026-05-04 02:17 35.10475 -85.36435 29591 ft 416 kts 324°
2026-05-04 02:17 35.12902 -85.38330 28925 ft 409 kts 325°
2026-05-04 02:18 35.15257 -85.40223 28269 ft 402 kts 321°
2026-05-04 02:18 35.17315 -85.42432 27743 ft 396 kts 312°
2026-05-04 02:18 35.19213 -85.44865 27329 ft 394 kts 312°
2026-05-04 02:18 35.21106 -85.47281 26880 ft 393 kts 312°
2026-05-04 02:19 35.22997 -85.49688 26427 ft 391 kts 312°
2026-05-04 02:19 35.24879 -85.52079 25988 ft 389 kts 312°
2026-05-04 02:19 35.26748 -85.54462 25545 ft 388 kts 312°
2026-05-04 02:19 35.28612 -85.56844 25106 ft 386 kts 312°
2026-05-04 02:20 35.30463 -85.59212 24667 ft 385 kts 312°
2026-05-04 02:20 35.32314 -85.61577 24228 ft 383 kts 312°
2026-05-04 02:20 35.34157 -85.63928 23792 ft 382 kts 312°
2026-05-04 02:20 35.35996 -85.66275 23307 ft 380 kts 312°
2026-05-04 02:21 35.37825 -85.68614 22866 ft 379 kts 312°
2026-05-04 02:21 35.39642 -85.70941 22439 ft 377 kts 312°
2026-05-04 02:21 35.41444 -85.73251 22005 ft 375 kts 312°
2026-05-04 02:21 35.43243 -85.75560 21590 ft 373 kts 312°
2026-05-04 02:22 35.45004 -85.77824 21157 ft 370 kts 312°
2026-05-04 02:22 35.46774 -85.80101 20733 ft 368 kts 312°
2026-05-04 02:22 35.48540 -85.82371 20316 ft 366 kts 312°
2026-05-04 02:22 35.50292 -85.84625 19894 ft 364 kts 313°
2026-05-04 02:23 35.52039 -85.86875 19476 ft 363 kts 313°
2026-05-04 02:23 35.53769 -85.89108 19144 ft 356 kts 313°
2026-05-04 02:23 35.55454 -85.91283 18889 ft 347 kts 313°
2026-05-04 02:23 35.57092 -85.93430 18647 ft 342 kts 312°
2026-05-04 02:24 35.58704 -85.95581 18377 ft 341 kts 311°
2026-05-04 02:24 35.60295 -85.97726 17963 ft 339 kts 311°
2026-05-04 02:24 35.61879 -85.99867 17601 ft 337 kts 311°
2026-05-04 02:24 35.63453 -86.01997 17268 ft 336 kts 312°
2026-05-04 02:25 35.65003 -86.04089 16942 ft 334 kts 312°
2026-05-04 02:25 35.66569 -86.06196 16612 ft 332 kts 312°
2026-05-04 02:25 35.68128 -86.08287 16284 ft 331 kts 312°
2026-05-04 02:25 35.69681 -86.10367 15969 ft 328 kts 312°
2026-05-04 02:26 35.71195 -86.12453 15635 ft 324 kts 308°
2026-05-04 02:26 35.72537 -86.14673 15319 ft 322 kts 307°
2026-05-04 02:26 35.73865 -86.16885 15004 ft 320 kts 307°
2026-05-04 02:26 35.75186 -86.19080 14677 ft 319 kts 307°
2026-05-04 02:27 35.76492 -86.21247 14370 ft 318 kts 307°
2026-05-04 02:27 35.77804 -86.23425 14063 ft 317 kts 307°
2026-05-04 02:27 35.79112 -86.25602 13728 ft 315 kts 307°
2026-05-04 02:27 35.80413 -86.27775 13395 ft 314 kts 307°
2026-05-04 02:28 35.81706 -86.29938 13078 ft 313 kts 307°
2026-05-04 02:28 35.82994 -86.32094 12757 ft 312 kts 307°
2026-05-04 02:28 35.84276 -86.34240 12472 ft 311 kts 307°
2026-05-04 02:28 35.85556 -86.36380 12164 ft 310 kts 307°
2026-05-04 02:29 35.86833 -86.38518 11825 ft 309 kts 307°
2026-05-04 02:29 35.88104 -86.40645 11521 ft 308 kts 307°
2026-05-04 02:29 35.89373 -86.42773 11211 ft 306 kts 307°
2026-05-04 02:29 35.90612 -86.44854 11050 ft 295 kts 307°
2026-05-04 02:30 35.91801 -86.46851 10924 ft 283 kts 307°
2026-05-04 02:30 35.92934 -86.48754 10744 ft 275 kts 307°
2026-05-04 02:30 35.94070 -86.50662 10518 ft 271 kts 307°
2026-05-04 02:30 35.95168 -86.52509 10266 ft 270 kts 307°
2026-05-04 02:31 35.96279 -86.54378 9879 ft 270 kts 307°
2026-05-04 02:31 35.97381 -86.56230 9605 ft 264 kts 307°
2026-05-04 02:31 35.98469 -86.58002 9471 ft 253 kts 313°
2026-05-04 02:31 35.99874 -86.59234 9282 ft 247 kts 336°
2026-05-04 02:32 36.01566 -86.59626 9130 ft 252 kts 359°
2026-05-04 02:32 36.03291 -86.59161 8857 ft 257 kts 14°
2026-05-04 02:32 36.04992 -86.58475 8546 ft 257 kts 14°
2026-05-04 02:32 36.06694 -86.57787 8229 ft 257 kts 14°
2026-05-04 02:33 36.08365 -86.57111 8043 ft 248 kts 14°
2026-05-04 02:33 36.09970 -86.56461 7931 ft 238 kts 14°
2026-05-04 02:33 36.11535 -86.55831 7776 ft 236 kts 14°
2026-05-04 02:33 36.13103 -86.55201 7414 ft 238 kts 14°
2026-05-04 02:34 36.14654 -86.54579 7114 ft 236 kts 14°
2026-05-04 02:34 36.16212 -86.53954 6819 ft 235 kts 14°
2026-05-04 02:34 36.17768 -86.53330 6516 ft 235 kts 14°
2026-05-04 02:34 36.19329 -86.52701 6192 ft 235 kts 14°
2026-05-04 02:35 36.20883 -86.52075 5883 ft 235 kts 13°
2026-05-04 02:35 36.22433 -86.51450 5575 ft 234 kts 13°
2026-05-04 02:35 36.24001 -86.51056 5285 ft 226 kts 355°
2026-05-04 02:35 36.25506 -86.51375 5087 ft 213 kts 334°
2026-05-04 02:36 36.26888 -86.51934 4953 ft 209 kts 349°